Regional Weather Roundup
Issued by NWS Grand Forks, ND

Home | Current Version | Previous Version | Graphics & Text | Print | Product List | Glossary On
Versions: 1 2 3 4 5 6 7 8 9 10 11 12 13 14 15 16 17 18 19 20 21 22 23 24 25 26 27 28 29 30 31 32 33 34 35 36 37 38 39 40 41 42 43 44 45 46 47 48 49 50
000
ASUS43 KFGF 022231
RWRFGF
PRAIRIE TO PINES  WEATHER ROUNDUP
NATIONAL WEATHER SERVICE EASTERN NORTH DAKOTA/GRAND FORKS ND
500 PM CDT THU JUL 02 2015

 **SATELLITE DATA USED TO AUGMENT SKY COVER AT AUTOMATED STATIONS**
 *****  WEATHER ACROSS EASTERN NORTH DAKOTA  *****

CITY           SKY/WX    TMP DP  RH WIND       PRES   REMARKS
GRAND FORKS    CLOUDY    75  64  69 S6        29.90R
GRAND FRKS AFB PTSUNNY   76  65  69 W9        29.90S
GRAND FRKS NWS   N/A     75 N/A N/A SW6         N/A
DEVILS LAKE    MOSUNNY   79  63  57 NW8       29.91F
FARGO          SUNNY     78  52  40 S12       29.93F
WAHPETON ARPT  CLEAR     73  50  43 S8        29.96F
$$

 ***** WEATHER ACROSS CENTRAL AND WESTERN NORTH DAKOTA  *****

CITY           SKY/WX    TMP DP  RH WIND       PRES   REMARKS
BISMARCK       PTSUNNY   79  62  56 NW12G18   29.97S HAZE
MINOT          PTSUNNY   79  63  57 NW15      29.95F HAZE
JAMESTOWN      PTSUNNY   75  64  68 S9        29.94F
MINOT AFB      PTSUNNY   82  67  60 N10       29.95S HAZE
GARRISON         N/A     79  64  60 NW10      29.98S
WILLISTON      MOSUNNY   84  57  39 N14       30.00F
DICKINSON      MOSUNNY   79  59  50 N10       30.02F HAZE
HETTINGER      MOSUNNY   77  60  55 N12       30.05S
$$

 *****  OTHER AIRPORT OBSERVATIONS IN OUR AREA  *****

CITY           SKY/WX    TMP DP  RH WIND       PRES   REMARKS
WALHALLA       FAIR      77  64  65 MISG      29.88S
GRAFTON AIRPOR MOCLDY    75  66  73 S13       29.89S
VALLEY CITY AR FAIR      73  66  78 SW8       29.94F
CANDO          MOCLDY    75  64  69 W10G16    29.92F HAZE
CAVALIER APRT  FAIR      79  64  61 W6        29.88S HAZE
GWINNER          N/A    N/A N/A N/A MISG        N/A
SHEYENNE NWR     N/A     78  56  46 S5        29.95S
ROLLA            N/A     73  64  73 NW9       29.95F
 ***** THE ABOVE OBSERVATIONS ARE NON NWS ARE NOT QUALITY
       CONTROLLED AND MAY MIS-REPORT RAIN FOR SNOW...
$$

  *****  WEATHER ACROSS NORTHERN MINNESOTA  *****

CITY           SKY/WX    TMP DP  RH WIND       PRES   REMARKS
FLAG ISLAND    MOSUNNY   73  61  64 SW12      29.87F
WARROAD        MOSUNNY   73  63  68 SW9G16    29.90F
ROSEAU         MOSUNNY   75  64  69 SW9       29.89F
HALLOCK        MOSUNNY   79  66  65 S14       29.87F
THF RVR FALLS  PTSUNNY   75  55  50 S15       29.92F
BAUDETTE       MOSUNNY   75  53  46 SW12      29.91F
WASKISH        MOSUNNY   75  61  60 SW10      29.93F
CROOKSTON      CLOUDY    75  59  57 S10       29.92S
$$
  *****  WEATHER ACROSS CENTRAL AND WEST MINNESOTA  *****

CITY           SKY/WX    TMP DP  RH WIND       PRES   REMARKS
FOSSTON        SUNNY     73  54  49 SW13      29.95F
BEMIDJI        MOSUNNY   74  55  52 SW14      29.96F
PARK RAPIDS    SUNNY     77  54  44 SW12      29.98F
ELBOW LAKE     FAIR      73  49  43 S6        29.99F
WADENA         SUNNY     73  55  53 S9        29.99F
DETROIT LAKES  SUNNY     73  54  49 S8        29.99F
MOORHEAD       SUNNY     75  54  46 S7        29.94F
FERGUS FALLS   SUNNY     73  52  46 S8        29.97F
MORRIS MN      MOSUNNY   75  48  38 S3        29.98F
STAPLES        SUNNY     73  54  49 S8        29.99F
$$
  *****  WEATHER ELSEWHERE ACROSS MINNESOTA  *****

CITY           SKY/WX    TMP DP  RH WIND       PRES   REMARKS
DULUTH         PTSUNNY   75  57  53 VRB3      29.97F
INTRNTL FALLS  PTSUNNY   75  58  55 W7        29.91F
ELY            MOSUNNY   75  55  50 W8        29.94F
CLOQUET        MOSUNNY   75  55  50 S7        29.97F
WHEATON        SUNNY     72  50  46 S6        29.99S
BRAINERD       MOSUNNY   77  52  41 S12       29.99F
HIBBING        MOSUNNY   76  57  51 W7        29.96F
ALEXANDRIA     SUNNY     73  52  47 SW6       30.02S
SAINT CLOUD    MOSUNNY   76  53  44 S8        30.00S
MINNEAPOLIS    PTSUNNY   76  53  44 S7        29.99F
$$

  *****  WEATHER ACROSS SOUTH DAKOTA  *****

CITY           SKY/WX    TMP DP  RH WIND       PRES   REMARKS
SIOUX FALLS    LGT RAIN  69  58  67 CALM      30.00S
BROOKINGS      CLOUDY    70  50  49 SE7       30.01F
WATERTOWN      PTSUNNY   74  46  36 VRB5      29.99F
HURON          CLOUDY    72  59  63 SE6       29.97F
SISSETON         N/A     75  54  47 SW8       29.97S
ABERDEEN       SUNNY     73  64  73 S8        29.98R
MITCHELL       CLOUDY    68  61  78 E13       29.99S
PIERRE         PTSUNNY   78  64  61 VRB3      29.96S
MOBRIDGE       MOSUNNY   79  67  66 NW8       29.95S HAZE
RAPID CITY     MOSUNNY   80  58  46 NW20G28   30.07S
$$

  *****  SOME WEATHER IN NEARBY STATES *****

CITY           SKY/WX    TMP DP  RH WIND       PRES   REMARKS
GLASGOW MT     PTSUNNY   81  55  40 NW13      30.04F
GREAT FALLS MT SUNNY     84  47  27 NE10G16   30.10F
CHEYENNE WY    MOSUNNY   79  51  37 NE13G20   30.21F
SCOTTSBLUFF NE MOSUNNY   81  53  37 NE12      30.10F
OMAHA NE       CLOUDY    70  65  84 E7        29.96S HAZE
DES MOINES IA  LGT RAIN  69  51  52 CALM      29.99R
DAVENPORT IA   CLOUDY    71  55  56 NE9       29.98R
CHICAGO IL     MOSUNNY   66  53  63 NE12      29.99S
EAU CLAIRE WI  SUNNY     76  53  44 SE8       29.99F
LA CROSSE WI   SUNNY     77  53  43 E7        29.99F
$$

  *****  SOME NATIONAL WEATHER *****

CITY           SKY/WX    TMP DP  RH WIND       PRES   REMARKS
LA GUARDIA NY  CLOUDY    76  58  53 S7        29.86S
RALEIGH NC     PTSUNNY   82  68  62 CALM      29.87S
ATLANTA GA     PTSUNNY   86  67  52 W17       29.98S
NEW ORLEANS LA CLOUDY    89  72  56 S13       30.03F HX  96
OKLAHOMA CITY  CLOUDY    90  72  55 S12       29.88F HX  97
ALBUQUERQUE NM PTSUNNY   88  48  25 E23G30    30.05F
SALT LAKE CITY PTSUNNY   97  38  13 W12       30.01F HX  92
LOS ANGELES CA MOSUNNY   74  63  68 W14       29.97F
BOISE ID       SUNNY    102  42  13 NW8       29.93F HX  97
SEATTLE WA     MOSUNNY   90  53  28 N12G21    30.00F
$$

*** WEATHER ACROSS MANITOBA...SASKATCHEWAN AND ONTARIO ***
                ***ONTARIO***

CITY           SKY/WX    TMP DP  RH WIND       PRES   REMARKS
GERALDTON      PTSUNNY   75  54  46 W7        29.87F
THUNDER BAY    CLOUDY    64  59  82 NE2       29.92F
SIOUX LOOKOUT  TSTM      63  63 100 SE5       29.86F
TORONTO        MOSUNNY   70  43  37 N14G22    29.96S
BIG TROUT LK   PTSUNNY   72  57  60 S16G23    29.71F
PICKLE LAKE    LGT RAIN  61  59  94 S7        29.82F
DRYDEN         SUNNY     72  55  56 SW13G23   29.86S
KENORA         PTSUNNY   72  59  64 SW15      29.88F
$$
                *** MANITOBA***

CITY           SKY/WX    TMP DP  RH WIND       PRES   REMARKS
BRANDON        CLOUDY    75  66  73 N14       29.92F SMOKE
DAUPHIN        SUNNY     79  61  53 NW5       29.89F HAZE
ISLAND LAKE    CLOUDY    77  59  53 W7        29.71F
PILOT MOUND      N/A     75  64  69 W7          N/A
THE PAS        MOSUNNY   79  50  36 NW16G22   29.86S SMOKE
THOMPSON       PTSUNNY   75  52  43 NW16G25   29.76S
WINNIPEG       CLOUDY    77  66  69 W12       29.87S SMOKE
LYNN LAKE      SUNNY     75  46  35 N13G22    29.85F
CHURCHILL      MOSUNNY   57  50  77 NE14G20   29.74S
GILLAM         CLOUDY    66  57  72 N13       29.71R THUNDER
$$
                ***SASKATCHEWAN***

CITY           SKY/WX    TMP DP  RH WIND       PRES   REMARKS
ESTEVAN        CLOUDY    79  63  57 NW9       29.99F SMOKE
KINDERSLEY     MOSUNNY   81  55  41 VRB2      30.05
LLOYDMINSTER   PTSUNNY   81  50  34 NW6       30.03F
PRINCE ALBERT  MOSUNNY   82  61  47 NW9       29.96  SMOKE
REGINA         CLOUDY    77  63  61 NW15      30.01F SMOKE
YORKTON        MOSUNNY   77  59  53 W13       29.95F HAZE
N. BATTLEFORD  SUNNY     82  54  36 W8        30.03F
LA RONGE         N/A     79  55  44 W5        29.90F SMOKE
SASKATOON      PTSUNNY   82  57  42 NW7       30.01F
SWIFT CURRENT  SUNNY     79  55  44 W8        30.07F HAZE
$$
NOTE: THESE ARE AUTOMATED STATIONS WITH LIMITED QUALITY CONTROL
      "FAIR" INDICATES FEW OR NO CLOUDS BELOW 12,000 FEET WITH NO
      SIGNIFICANT WEATHER AND/OR OBSTRUCTIONS TO VISIBILITY.
      SKY/WX - SKY CONDITION AND SIGNIFICANT WEATHER.
      TMP - AIR TEMPERATURE.    DP   - DEWPOINT TEMPERATURE.
      RH  - RELATIVE HUMIDITY.  PRES - PRESSURE.
      HX  - HEAT INDEX.         WCI  - WIND CHILL INDEX.
$



USA.gov is the U.S. government's official web portal to all federal, state and local government web resources and services.